Location: Molino di Ancona
(43.6167°N, 13.3667°E)
Time: 03:22:21
(UTC+00:00)

PAYLOAD B - Pass Details

Date: 15 December 2019
Orbit: 850 x 871 km, 99.1° (Epoch: 20 January)

Event Time Altitude Azimuth Distance (km) Brightness Sun altitude
Rises 04:57:54 0° 11° (N) 3,432 7.3 -16.4°
Reaches altitude 10° 05:00:18 10° 8° (N) 2,495 6.6 -16.0°
Maximum altitude 05:05:45 62° 289° (WNW) 961 4.2 -15.1°
Drops below altitude 10° 05:11:12 10° 210° (SSW) 2,492 6.5 -14.1°
Sets 05:13:35 0° 207° (SSW) 3,428 7.3 -13.7°
